Location: Adaghas
(31.2259°N, 9.0496°W)
Time: 03:44:16
(UTC+00:00)

Cosmos 1025 Rocket - Pass Details

Date: 18 September 2020
Orbit: 595 x 617 km, 82.5° (Epoch: 23 October)

Event Time Altitude Azimuth Distance (km) Brightness Sun altitude
Rises 20:27:11 0° 354° (N) 2,881 6.8 -23.9°
Reaches altitude 10° 20:29:24 10° 354° (N) 1,975 5.9 -24.4°
Enters shadow 20:33:03 62° 358° (N) 695 3.3 -25.1°
